Home > Weather > Nanaimo > Past weeks

Flag for Canada Weather for the Past 2 Weeks in Nanaimo, British Columbia, Canada

Now
58 °F

Cool.


Feels Like: 57 °F
Forecast: 49 / 73 °F
Wind: 6 mph from Northwest

Location: Entrance Island

Current Time: May 1, 2016 at 11:27:16 PM

Latest Report: May 1, 2016 at 10:00 PM


Visibility: N/A

Pressure: 29.95 "Hg

Humidity: 84%

Dew Point: 53 °F

Location of NanaimoLocation

Historic Weather in Nanaimo — Graph

°F

Nanaimo Temperature Yesterday

Maximum temperature yesterday: 59 °F (at 10:00 PM)
Minimum temperature yesterday: 51 °F (at 9:00 AM)
Average temperature yesterday: 54 °F

High & Low Weather Summary for the Past Weeks

 TemperatureHumidityPressure
High71 °F (Apr 18, 7:00 PM)97% (Apr 24, 3:00 AM)30.38 "Hg (Apr 24, 3:00 AM)
Low47 °F (Apr 26, 6:00 AM)34% (Apr 18, 7:00 PM)29.58 "Hg (Apr 22, 9:00 AM)
Average55 °F79%30.02 "Hg
* Reported Apr 16 9:00 PM — May 1 9:00 PM, Nanaimo, Weather by CustomWeather, © 2016

Note: Actual official high and low records may vary slightly from our data, if they occured in-between our weather recording intervals... More about our weather records

Advertising

Nanaimo Weather History for the Previous 24 Hours

Scroll right to see more
 ConditionsComfort  
Time TempWeatherWind HumidityBarometerVisibility
9:00 PM
Sun, May 1
59 °FCool.2 mph76%29.94 "HgN/A
8:00 PM63 °FMild.1 mph64%29.95 "HgN/A
7:00 PM63 °FMild.No wind74%29.96 "HgN/A
6:00 PM62 °FCool.2 mph74%29.99 "HgN/A
5:00 PM62 °FCool.1 mph68%30.02 "HgN/A
4:00 PM61 °FCool.1 mph74%30.04 "HgN/A
3:00 PM61 °FCool.2 mph74%30.08 "HgN/A
2:00 PM59 °FCool.3 mph78%30.10 "HgN/A
1:00 PM57 °FCool.5 mph79%30.13 "HgN/A
12:00 PM56 °FCool.7 mph78%30.16 "HgN/A
11:00 AM56 °FCool.5 mph77%30.18 "HgN/A
10:00 AM55 °FCool.12 mph76%30.20 "HgN/A
9:00 AM56 °FCool.9 mph76%30.22 "HgN/A
8:00 AM54 °FCool.6 mph77%30.24 "HgN/A
7:00 AM53 °FCool.6 mph76%30.25 "HgN/A
6:00 AM53 °FCool.7 mph76%30.25 "HgN/A
5:00 AM53 °FCool.8 mph71%30.26 "HgN/A
4:00 AM53 °FCool.5 mph83%30.27 "HgN/A
3:00 AM53 °FCool.3 mph78%30.27 "HgN/A
2:00 AM53 °FCool.3 mph77%30.28 "HgN/A
1:00 AM55 °FCool.3 mph73%30.29 "HgN/A
12:00 AM56 °FCool.5 mph78%30.29 "HgN/A
11:00 PM
Sat, Apr 30
57 °FCool.9 mph68%30.29 "HgN/A
Weather by CustomWeather, © 2016

See weather overviewHow to use our weather pages